POLAR

Last updated on Fri Oct 24 2025 00:03:39 GMT+0000 (Coordinated Universal Time)

1 23802U 96013A 25294.27053660 .00000097 00000+0 00000+0 0 9999 2 23802 79.5855 229.7197 6235650 217.1605 76.7498 1.29846405141750
UTC large
Height (km)
Speed (km/s)
/
Latitude / Longitude
Inclination (degrees)
Orbital Period (minutes)
Azimuth
Elevation
Range (km)
Doppler Factor

Next 0 passes for location: London (51.5072 / 0.1276)

Sorry there are no passes over London.